Voltar ao catálogo

HULIANWANG DIGUI-137

AtivoComunicaçõesLEO
NORAD 67435·PAYLOAD·🇨🇳 China

Lançado Jan 13, 2026 de Wenchang Space Launch Site

Loading…

Próximas Passagens (próximas 24 horas)

TLE

AtualizadoSource: Space-Track

Época: Sep 14, 2026, 14:51 UTC

1 67435U 26007A   26257.61931458 -.00000086  00000-0  81359-4 0  9994
2 67435  50.0069 125.1251 0000434 359.9414   0.1458 13.29330366 32683

Acompanhe HULIANWANG DIGUI-137 em tempo real com AllMySat

Download on the App Store